Location: Carabito
(9.8355°N, 67.9249°W)
Time: 21:53:51
(UTC+00:00)

Delta 128 - Pass Details

Date: 23 May 2024
Orbit: 608 x 1210 km, 28.0° (Epoch: 22 June)

Event Time Altitude Azimuth Distance (km) Brightness Sun altitude
Exits shadow 09:24:34 13° 233° (SW) 2,378 5.9 -11.2°
Maximum altitude 09:30:05 68° 152° (SSE) 874 4.3 -9.9°
Drops below altitude 10° 09:35:19 10° 69° (ENE) 2,222 8.1 -8.7°
Sets 09:37:35 0° 67° (ENE) 3,068 9.7 -8.2°
